| time (UTC) | temp C | wind direction | speed KPH | gust KPH | rain 1hr cm | rain 24hr cm | rain mn cm | humidity % | barometer mb |
| 20260507113058 | 8 | 0 | 0.0 | 0.0 | 0.00 | 0.00 | 0.00 | 80 | 1019.5 |
| 20260507111555 | 8 | 0 | 0.0 | 0.0 | 0.00 | 0.00 | 0.00 | 80 | 1019.4 |
| 20260507110051 | 8 | 0 | 0.0 | 0.0 | 0.00 | 0.00 | 0.00 | 80 | 1019.3 |
| 20260507104558 | 8 | 0 | 0.0 | 0.0 | 0.00 | 0.00 | 0.00 | 79 | 1019.3 |
| 20260507103054 | 8 | 0 | 0.0 | 0.0 | 0.00 | 0.00 | 0.00 | 79 | 1019.4 |
| 20260507101557 | 8 | 0 | 0.0 | 0.0 | 0.00 | 0.00 | 0.00 | 78 | 1019.3 |
| 20260507100058 | 8 | 0 | 0.0 | 0.0 | 0.00 | 0.00 | 0.00 | 76 | 1019.4 |
| 20260507094553 | 8 | 0 | 0.0 | 0.0 | 0.00 | 0.00 | 0.00 | 76 | 1019.2 |
| 20260507093052 | 8 | 0 | 0.0 | 0.0 | 0.00 | 0.00 | 0.00 | 77 | 1018.9 |
| 20260507091600 | 8 | 0 | 0.0 | 0.0 | 0.00 | 0.00 | 0.00 | 76 | 1019.2 |
| 20260507090051 | 8 | 0 | 0.0 | 0.0 | 0.00 | 0.00 | 0.00 | 76 | 1019.4 |
| 20260507084552 | 9 | 0 | 0.0 | 0.0 | 0.00 | 0.00 | 0.00 | 75 | 1019.5 |
| 20260507083053 | 9 | 0 | 0.0 | 0.0 | 0.00 | 0.00 | 0.00 | 75 | 1019.5 |
| 20260507081555 | 9 | 0 | 0.0 | 0.0 | 0.00 | 0.00 | 0.00 | 74 | 1019.4 |
| 20260507080056 | 10 | 0 | 0.0 | 0.0 | 0.00 | 0.00 | 0.00 | 74 | 1019.2 |
| 20260507074606 | 10 | 0 | 0.0 | 0.0 | 0.00 | 0.00 | 0.00 | 73 | 1019.2 |
| 20260507073054 | 10 | 0 | 0.0 | 0.0 | 0.00 | 0.00 | 0.00 | 72 | 1019.5 |
| 20260507071554 | 10 | 0 | 0.0 | 0.0 | 0.00 | 0.00 | 0.00 | 72 | 1019.4 |
| 20260507070109 | 10 | 0 | 0.0 | 0.0 | 0.00 | 0.00 | 0.00 | 72 | 1019.8 |
| 20260507064602 | 10 | 0 | 0.0 | 0.0 | 0.00 | 0.00 | 0.00 | 71 | 1019.9 |
| 20260507063058 | 10 | 0 | 0.0 | 3.2 | 0.00 | 0.00 | 0.00 | 70 | 1019.9 |
| 20260507061553 | 10 | 0 | 0.0 | 1.6 | 0.00 | 0.00 | 0.00 | 69 | 1019.8 |
| 20260507060055 | 11 | 0 | 0.0 | 6.4 | 0.00 | 0.00 | 0.00 | 69 | 1019.5 |
| 20260507054554 | 11 | 0 | 0.0 | 8.0 | 0.00 | 0.00 | 0.00 | 68 | 1019.2 |
| 20260507053049 | 11 | 0 | 0.0 | 8.0 | 0.00 | 0.00 | 0.00 | 66 | 1019.4 |
| 20260507051557 | 11 | 13 | 1.6 | 8.0 | 0.00 | 0.00 | 0.00 | 64 | 1019.1 |
| 20260507050056 | 11 | 0 | 0.0 | 0.0 | 0.00 | 0.00 | 0.00 | 66 | 1019.2 |
| 20260507044554 | 11 | 0 | 0.0 | 0.0 | 0.00 | 0.00 | 0.00 | 66 | 1019.1 |
| 20260507043054 | 12 | 0 | 0.0 | 0.0 | 0.00 | 0.00 | 0.00 | 65 | 1019.1 |
| 20260507041553 | 12 | 0 | 0.0 | 0.0 | 0.00 | 0.00 | 0.00 | 64 | 1019.0 |
| 20260507040049 | 12 | 0 | 0.0 | 8.0 | 0.00 | 0.00 | 0.00 | 60 | 1019.0 |
| 20260507034552 | 12 | 14 | 0.0 | 11.3 | 0.00 | 0.00 | 0.00 | 59 | 1019.1 |
| 20260507033056 | 12 | 0 | 0.0 | 6.4 | 0.00 | 0.00 | 0.00 | 58 | 1018.8 |
| 20260507031554 | 13 | 14 | 1.6 | 11.3 | 0.00 | 0.00 | 0.00 | 58 | 1018.7 |
| 20260507030057 | 13 | 14 | 1.6 | 14.5 | 0.00 | 0.00 | 0.00 | 58 | 1018.6 |
| 20260507024552 | 13 | 14 | 3.2 | 12.9 | 0.00 | 0.00 | 0.00 | 57 | 1018.5 |
| 20260507023052 | 13 | 13 | 3.2 | 14.5 | 0.00 | 0.00 | 0.00 | 56 | 1018.2 |
| 20260507021553 | 14 | 13 | 4.8 | 16.1 | 0.00 | 0.00 | 0.00 | 56 | 1018.2 |
| 20260507020051 | 14 | 13 | 1.6 | 11.3 | 0.00 | 0.00 | 0.00 | 56 | 1017.9 |
| 20260507014557 | 14 | 0 | 1.6 | 8.0 | 0.00 | 0.00 | 0.00 | 55 | 1017.7 |
| 20260507013111 | 15 | 0 | 1.6 | 6.4 | 0.00 | 0.00 | 0.00 | 55 | 1017.5 |
| 20260507011552 | 15 | 0 | 0.0 | 3.2 | 0.00 | 0.00 | 0.00 | 54 | 1017.4 |
| 20260507010108 | 15 | 0 | 0.0 | 1.6 | 0.00 | 0.00 | 0.00 | 53 | 1017.1 |
| 20260507004551 | 15 | 15 | 0.0 | 11.3 | 0.00 | 0.00 | 0.00 | 53 | 1017.1 |
| 20260507003047 | 15 | 15 | 1.6 | 11.3 | 0.00 | 0.00 | 0.00 | 52 | 1016.9 |
| 20260507001557 | 16 | 0 | 0.0 | 12.9 | 0.00 | 0.00 | 0.00 | 52 | 1016.7 |
| 20260507000059 | 16 | 15 | 6.4 | 17.7 | 0.00 | 0.00 | 0.00 | 52 | 1016.7 |
| 20260506234554 | 16 | 13 | 1.6 | 17.7 | 0.00 | 0.00 | 0.00 | 53 | 1016.7 |
| 20260506233104 | 16 | 0 | 0.0 | 6.4 | 0.00 | 0.00 | 0.00 | 53 | 1016.7 |
| 20260506231553 | 16 | 19 | 3.2 | 14.5 | 0.00 | 0.00 | 0.00 | 52 | 1016.5 |
| 20260506224546 | 16 | 14 | 3.2 | 17.7 | 0.00 | 0.00 | 0.00 | 53 | 1016.3 |
| 20260506223053 | 16 | 15 | 1.6 | 16.1 | 0.00 | 0.00 | 0.00 | 54 | 1015.9 |
| 20260506221558 | 16 | 13 | 6.4 | 16.1 | 0.00 | 0.00 | 0.00 | 54 | 1015.8 |
| 20260506220056 | 16 | 15 | 4.8 | 14.5 | 0.00 | 0.00 | 0.00 | 53 | 1015.9 |
| 20260506214552 | 16 | 11 | 3.2 | 17.7 | 0.00 | 0.00 | 0.00 | 54 | 1015.8 |
| 20260506213052 | 16 | 17 | 3.2 | 14.5 | 0.00 | 0.00 | 0.00 | 53 | 1015.9 |
| 20260506211554 | 16 | 14 | 1.6 | 17.7 | 0.00 | 0.00 | 0.00 | 57 | 1015.8 |
| 20260506210052 | 16 | 11 | 1.6 | 17.7 | 0.00 | 0.00 | 0.00 | 57 | 1016.0 |
| 20260506204551 | 16 | 0 | 3.2 | 12.9 | 0.00 | 0.00 | 0.00 | 55 | 1016.3 |
| 20260506203052 | 16 | 15 | 3.2 | 17.7 | 0.00 | 0.00 | 0.00 | 56 | 1016.3 |
| 20260506201553 | 16 | 14 | 4.8 | 19.3 | 0.00 | 0.00 | 0.00 | 56 | 1016.5 |
| 20260506200055 | 16 | 15 | 1.6 | 12.9 | 0.00 | 0.00 | 0.00 | 57 | 1017.0 |
| 20260506194554 | 16 | 13 | 1.6 | 11.3 | 0.00 | 0.00 | 0.00 | 58 | 1016.9 |
| 20260506193047 | 16 | 13 | 1.6 | 12.9 | 0.00 | 0.00 | 0.00 | 59 | 1016.7 |
| 20260506191553 | 15 | 15 | 1.6 | 16.1 | 0.00 | 0.00 | 0.00 | 57 | 1017.0 |
| 20260506190057 | 15 | 14 | 3.2 | 16.1 | 0.00 | 0.00 | 0.00 | 58 | 1017.4 |
| 20260506184553 | 15 | 13 | 1.6 | 12.9 | 0.00 | 0.00 | 0.00 | 59 | 1017.4 |
| 20260506183048 | 15 | 16 | 1.6 | 16.1 | 0.00 | 0.00 | 0.00 | 56 | 1017.6 |
| 20260506181552 | 15 | 17 | 1.6 | 16.1 | 0.00 | 0.00 | 0.00 | 59 | 1017.6 |
| 20260506180055 | 15 | 15 | 3.2 | 20.9 | 0.00 | 0.00 | 0.00 | 58 | 1017.8 |
| 20260506174552 | 15 | 14 | 3.2 | 16.1 | 0.00 | 0.00 | 0.00 | 58 | 1017.8 |
| 20260506173106 | 15 | 0 | 3.2 | 16.1 | 0.00 | 0.00 | 0.00 | 57 | 1018.1 |
| 20260506171553 | 14 | 12 | 6.4 | 17.7 | 0.00 | 0.00 | 0.00 | 59 | 1018.6 |
| 20260506170105 | 13 | 16 | 4.8 | 16.1 | 0.00 | 0.00 | 0.00 | 59 | 1018.9 |
| 20260506164606 | 13 | 15 | 3.2 | 17.7 | 0.00 | 0.00 | 0.00 | 61 | 1019.1 |
| 20260506163058 | 13 | 13 | 3.2 | 16.1 | 0.00 | 0.00 | 0.00 | 61 | 1018.8 |
| 20260506161553 | 13 | 13 | 3.2 | 20.9 | 0.00 | 0.00 | 0.00 | 61 | 1018.7 |
| 20260506160106 | 13 | 14 | 3.2 | 16.1 | 0.00 | 0.00 | 0.00 | 62 | 1018.6 |
| 20260506154555 | 12 | 15 | 1.6 | 11.3 | 0.00 | 0.00 | 0.00 | 65 | 1018.2 |
| 20260506153046 | 12 | 14 | 1.6 | 8.0 | 0.00 | 0.00 | 0.00 | 64 | 1017.8 |
| 20260506151553 | 11 | 15 | 3.2 | 19.3 | 0.00 | 0.00 | 0.00 | 66 | 1017.4 |
| 20260506150054 | 11 | 15 | 3.2 | 20.9 | 0.00 | 0.00 | 0.00 | 66 | 1017.4 |
| 20260506144553 | 10 | 17 | 1.6 | 16.1 | 0.00 | 0.00 | 0.00 | 68 | 1017.4 |
| 20260506143051 | 10 | 15 | 3.2 | 17.7 | 0.00 | 0.00 | 0.00 | 71 | 1017.4 |
| 20260506141609 | 10 | 14 | 1.6 | 20.9 | 0.00 | 0.00 | 0.00 | 73 | 1017.3 |
| 20260506140048 | 9 | 15 | 4.8 | 27.4 | 0.00 | 0.00 | 0.00 | 73 | 1017.5 |
| 20260506134553 | 9 | 15 | 4.8 | 33.8 | 0.00 | 0.00 | 0.00 | 73 | 1017.4 |
| 20260506133059 | 9 | 15 | 3.2 | 17.7 | 0.00 | 0.00 | 0.00 | 76 | 1017.6 |
| 20260506131555 | 8 | 15 | 4.8 | 25.7 | 0.00 | 0.00 | 0.00 | 75 | 1017.5 |
| 20260506130048 | 8 | 16 | 4.8 | 20.9 | 0.00 | 0.00 | 0.00 | 76 | 1017.3 |
| 20260506124553 | 8 | 17 | 3.2 | 19.3 | 0.00 | 0.00 | 0.00 | 80 | 1017.3 |
| 20260506123055 | 8 | 15 | 3.2 | 22.5 | 0.00 | 0.00 | 0.00 | 81 | 1017.0 |
| 20260506121555 | 8 | 15 | 3.2 | 19.3 | 0.00 | 0.00 | 0.00 | 81 | 1016.8 |
| 20260506120115 | 8 | 15 | 4.8 | 19.3 | 0.00 | 0.00 | 0.00 | 80 | 1016.3 |
| 20260506114548 | 8 | 0 | 1.6 | 16.1 | 0.00 | 0.00 | 0.00 | 80 | 1016.3 |